{"data":{"norad_id":62847,"intl_designator":"2025-019U","name":"STARLINK-32799","alt_names":[],"object_type":"PAYLOAD","status":"ACTIVE","operator":null,"country":"US","launch_date":"2025-01-27","launch_site_code":"AFETR","launch_vehicle":null,"mission":null,"orbit_class":"UNKNOWN","rcs_meters":null,"size_class":null,"mass_kg":null,"dimensions":null,"purposes":["comms"],"wikipedia_slug":null,"has_3d_model":false,"image_url":null,"decayed_at":null,"tle_current":{"epoch":"2026-09-21T03:14:00.493152Z","epoch_age_seconds":113359,"freshness":"FRESH","line1":"1 62847U 25019U   26264.13472793  .00006506  00000+0  24574-3 0  9991","line2":"2 62847  42.9865  65.0462 0000591 344.4092  15.6741 15.27576605 92141","mean_motion":15.27576605,"eccentricity":5.91e-5,"inclination_deg":42.9865,"raan_deg":65.0462,"arg_perigee_deg":344.4092,"mean_anomaly_deg":15.6741,"bstar":0.00024574,"rev_number":9214,"period_min":94.266958219094,"perigee_km":482.65376521075,"apogee_km":483.46475860891,"semimajor_km":6861.1962619098,"source":"CELESTRAK","updated_at":"2026-09-22T09:00:49.674849Z"}}}